Weather in Kokkola

Finland     63°49′52″N   23°08′32″E
temp.,
°C
wind,
m/s
gust,
m/s
humid.,
%
clouds,
%
prec.,
mm/h
press.,
hPa
HPBL,
m
17 august, wed
wed1700:00+20se11835 0.0 101413
03:00+20sse413755 0.0 1013367
06:00+19sse4127799 0.1 1012356
09:00+19sse51484100 0.6 1012495
12:00+19sse5149099 0.9 1012524
15:00+22sse5137379 1.2 1010867
18:00+23sw41082100 2.8 1009436
21:00+20s51192100 4.2 1010692
18 august, thu
thu1800:00+18ssw4119752 1.1 1011583
03:00+17sw3897100 1.9 1012622
06:00+15nw249727 0.4 1014154
09:00+15nnw228531 0.4 1016415
12:00+18nnw22620 0.0 1018647
15:00+20nnw22550 0.0 1019725
18:00+20n33610 0.0 1019388
21:00+15nne268567 0.0 1019127
19 august, fri
fri1900:00+15e23965 0.0 101962
03:00+16ese2598100 0.0 1018110
06:00+16sse2497100 0.0 101982
09:00+20sse2585100 0.1 1019232
12:00+23s257195 0.2 1019597
15:00+24s366625 0.6 1018840
18:00+25s486171 0.1 1018991
21:00+21e118299 0.1 101813
20 august, sat
sat2000:00+19sse1388100 0.7 101857
03:00+18se3108865 1.0 1018243
06:00+17se4138267 0.0 1017295
09:00+22sse5146437 0.0 1017597
12:00+27sse511475 0.0 10161531
15:00+28sse59425 0.0 10151874
18:00+27sse51048100 0.0 10142077
21:00+22sse61367100 0.1 1014641
21 august, sun
sun2100:00+20sse61462100 0.1 1013668
03:00+19sse51568100 0.1 1012646
06:00+19sse51370100 0.0 1012737
09:00+18sse4117599 0.2 1012614
12:00+22sse5116398 0.0 10111019
15:00+21ssw4981100 1.1 1010633
18:00+18s31298100 7.1 1010979
21:00+18s1599100 20.5 1010274